Date,TemperatureHighF,TemperatureAvgF,TemperatureLowF,DewpointHighF,DewpointAvgF,DewpointLowF,HumidityHigh,HumidityAvg,HumidityLow,PressureMaxIn,PressureMinIn,WindSpeedMaxMPH,WindSpeedAvgMPH,GustSpeedMaxMPH,PrecipitationSumIn
2013-6-1,79.3,64.9,55.8,55.0,50.9,48.4,78,62,39,29.98,29.80,10,2,13,0.00
2013-6-2,68.4,58.5,53.8,52.7,50.9,49.6,89,76,57,29.83,29.73,12,3,22,0.00
2013-6-3,67.5,58.9,54.7,54.5,52.1,50.5,90,78,62,29.91,29.77,18,-5,19,0.00
2013-6-4,64.4,57.7,54.7,54.5,52.4,51.1,90,83,70,30.02,29.90,14,0,27,0.00
2013-6-5,61.7,56.4,53.4,53.1,51.3,50.0,91,83,71,30.05,29.98,12,3,19,0.00
2013-6-6,64.9,56.8,52.5,53.8,51.8,50.2,92,84,65,30.01,29.91,16,-1,17,0.00
2013-6-7,73.0,60.9,53.2,57.6,53.9,50.9,94,79,57,29.95,29.76,10,2,16,0.00
2013-6-8,66.4,60.4,55.0,56.1,54.1,51.6,89,80,68,29.84,29.76,19,-5,20,0.00
2013-6-9,63.3,59.0,56.7,56.5,54.8,54.1,92,86,75,29.93,29.84,15,1,21,0.00
2013-6-10,68.0,60.4,56.5,55.2,53.7,52.3,90,79,61,29.99,29.85,19,0,26,0.00
2013-6-11,68.4,60.4,56.7,55.8,53.2,51.3,88,78,60,30.03,29.93,10,2,17,0.00
2013-6-12,70.0,60.7,54.1,53.2,51.0,49.3,86,71,54,30.04,29.95,11,3,19,0.00
2013-6-13,71.4,61.5,53.2,52.7,50.4,48.0,84,68,50,30.13,30.04,10,-2,14,0.00
2013-6-14,78.6,62.6,54.1,56.7,51.5,47.1,86,69,34,30.04,29.87,11,-5,18,0.00
2013-6-15,60.4,54.6,52.0,52.7,50.4,49.1,90,86,73,30.05,29.88,18,5,21,0.00
2013-6-16,65.1,58.2,52.9,54.9,51.6,49.6,90,79,68,30.13,30.04,14,1,20,0.00
2013-6-17,67.5,59.1,52.0,57.9,54.0,50.4,95,83,70,30.13,30.06,18,-15,22,0.00
2013-6-18,64.8,58.5,55.0,55.0,53.2,51.6,94,83,68,30.07,30.02,17,5,24,0.00
2013-6-19,67.3,60.3,53.8,52.9,50.4,48.0,90,71,55,30.09,30.03,15,4,22,0.00
2013-6-20,68.5,60.3,54.7,54.1,50.0,48.2,81,70,54,30.06,29.98,16,4,21,0.00
2013-6-21,70.0,59.4,52.5,56.5,51.6,48.6,89,76,53,30.01,29.96,11,3,19,0.00
2013-6-22,75.4,62.0,54.7,57.2,52.9,49.6,93,73,47,29.98,29.88,14,3,21,0.00
2013-6-23,64.9,59.3,54.7,61.0,56.9,53.2,96,92,85,29.93,29.86,12,-1,17,0.00
2013-6-24,63.7,59.7,56.1,59.7,56.7,53.8,95,90,81,29.94,29.84,11,1,12,0.00
2013-6-25,72.9,66.0,62.8,65.5,62.3,57.6,95,88,77,30.02,29.92,11,-1,16,0.00
2013-6-26,75.9,67.7,61.9,64.9,61.9,58.6,94,82,66,30.09,30.01,13,-8,16,0.00
2013-6-27,76.6,66.4,59.2,63.3,59.3,56.5,95,79,59,30.11,30.04,12,-1,18,0.00
2013-6-28,83.1,67.4,60.4,62.6,58.4,56.1,86,74,48,30.07,29.93,11,2,17,0.00
2013-6-29,85.5,69.8,62.8,60.3,57.4,55.4,78,66,41,29.96,29.83,13,2,21,0.00
2013-6-30,74.5,64.9,59.5,58.8,56.8,55.0,86,76,57,29.88,29.81,10,2,16,0.00